Content
SEND FEEDBACK

Daily
Averages
Monthly
Summary
United States of America

STATEN ISLAND, NEW YORK


Home > North America > United States > New York
Elevation: 46 meters     Latitude: 40 35N     Longitude: 074 09W

WEATHER
 
SELECT A DAY
Number of Records: 189,619;   Date Range: 1/1/95 - 7/27/14
 
SHARE

PRINT THIS DATA

[ ← Previous Day ]
WEATHER ALMANAC - 21 JUNE, 2013
[ Next Day → ]
[ °F ]   °C
Weather ElementAverageHighLow
Temperature23 °C28.3 °C (1:51 pm)16.7 °C (4:51 am)
Dewpoint11.6 °C14.4 °C (6:51 pm)8.3 °C (1:51 am)
Humidity49.4 %67 % (6:51 am)38 % (1:51 pm)
Barometer1025.1 hPa1026.4 hPa (8:51 am)1023.7 hPa (5:51 pm)
Wind Speed14.2 km/h24.1 km/h (3:51 pm)
Wind Gust29.6 km/h (3:51 pm)
Weather ElementAverage
Visibility16.1 km
Wind DirectionSSW (193 °)

Weather ElementTotal
Precipitation---
Cooling Degree Days4.2 (Base 18.3)
Growing Degree Days12.5 (Base 10)
Averaged from 23 records on 21 June, 2013
WEATHER CONDITIONS BREAKOUT
WIND DIRECTION BREAKOUT
WEATHER BY HOUR - 21 JUNE, 2013
[ °F ]   °C
Local TimeTemperatureDewpointHumidityBarometerVisibilityWind DirectionWind SpeedGust SpeedPrecipitationEventsConditions
1:51 AM17.8 °C8.3 °C54 %1025.4 hPa16.1 kmSSW (200°)13 km/hClear
2:51 AM18.3 °C8.3 °C52 %1025.4 hPa16.1 kmSW (220°)14.8 km/hPartly Cloudy
3:51 AM17.8 °C8.3 °C54 %1025.4 hPa16.1 kmSW (220°)14.8 km/hPartly Cloudy
4:51 AM16.7 °C9.4 °C62 %1025.4 hPa16.1 kmSW (220°)11.1 km/hPartly Cloudy
5:51 AM16.7 °C10 °C65 %1025.7 hPa16.1 kmWSW (240°)11.1 km/hPartly Cloudy
6:51 AM17.8 °C11.7 °C67 %1026.1 hPa16.1 kmSSW (200°)5.6 km/hPartly Cloudy
7:51 AM20 °C10.6 °C55 %1026.1 hPa16.1 kmSW (230°)9.3 km/hClear
8:51 AM22.2 °C10 °C46 %1026.4 hPa16.1 kmWSW (250°)9.3 km/hClear
9:51 AM23.9 °C11.1 °C44 %1025.7 hPa16.1 kmSW (230°)11.1 km/hPartly Cloudy
10:51 AM25.6 °C11.7 °C42 %1026.1 hPa16.1 kmWSW (250°)18.5 km/hPartly Cloudy
11:51 AM26.1 °C12.2 °C42 %1025.7 hPa16.1 kmSW (230°)11.1 km/hPartly Cloudy
12:51 PM27.2 °C12.8 °C41 %1025.7 hPa16.1 kmVariable11.1 km/hScattered Clouds
1:51 PM28.3 °C12.8 °C38 %1025.1 hPa16.1 kmWSW (240°)14.8 km/hScattered Clouds
2:51 PM27.8 °C12.8 °C39 %1024.7 hPa16.1 kmSouth (170°)13 km/hScattered Clouds
3:51 PM27.2 °C13.3 °C42 %1024.4 hPa16.1 kmSSE (150°)24.1 km/h29.6 km/hScattered Clouds
4:51 PM27.8 °C13.3 °C41 %1024 hPa16.1 kmSSE (150°)16.7 km/h29.6 km/hScattered Clouds
5:51 PM26.7 °C13.9 °C45 %1023.7 hPa16.1 kmSSE (150°)18.5 km/hMostly Cloudy
6:51 PM26.7 °C14.4 °C47 %1024 hPa16.1 kmSouth (170°)18.5 km/hMostly Cloudy
7:51 PM25 °C13.9 °C50 %1024 hPa16.1 kmSouth (170°)18.5 km/hMostly Cloudy
8:51 PM23.9 °C12.8 °C50 %1024 hPa16.1 kmSouth (170°)16.7 km/hMostly Cloudy
9:51 PM22.8 °C12.2 °C51 %1024.4 hPa16.1 kmSouth (180°)14.8 km/hMostly Cloudy
10:51 PM21.7 °C12.2 °C55 %1024.7 hPa16.1 kmSouth (190°)13 km/hMostly Cloudy
11:51 PM20.6 °C11.1 °C54 %1024.7 hPa16.1 kmSSW (210°)16.7 km/hMostly Cloudy
Hourly data recorded from KEWR, located 0 kilometers away from Staten Island, New York







STORIES FROM OUR PARTNERS